Temperature
17 19 20 20 20 19 19 18 19 20 18 15 17 18 20 20 20 19 18 18 18 17 17 16 16 17 16 16 15 14 14 13 12 11 11 10 10 9 8 8 7 7 6 6
19 19 20 18 16 16 17 18 19 20 16 15 17 17 19 20 19 19 18 18 17 17 16 15 14 15 16 16 16 15 14 14 13 12 12 11 10 10 9 9 8 8 7 6
19 19 16 16 17 17 17 18 19 18 18 16 15 19 21 22 20 18 17 16 16 15 15 15 14 15 16 17 17 16 16 15 14 13 12 11 10 9 9 9 9 9 8 6
18 17 15 16 17 17 18 17 16 15 16 18 16 18 21 22 21 21 20 19 17 16 15 15 15 15 17 17 17 16 16 16 15 14 13 12 12 12 13 12 11 10 9 8
19 16 16 17 17 16 17 15 15 15 16 16 17 17 20 22 22 22 21 19 18 16 16 16 17 17 17 17 17 17 16 16 15 15 14 13 13 13 12 11 11 10 10 9
17 15 16 16 15 14 15 15 14 14 16 17 17 17 20 23 22 21 20 19 17 16 16 16 17 18 17 17 17 17 17 16 16 15 15 15 14 14 13 12 12 11 10 10
17 16 15 14 15 15 15 17 19 19 18 19 15 15 19 22 21 19 18 17 17 16 16 16 16 17 17 18 18 17 17 17 17 16 16 16 15 15 14 13 12 11 11 11
17 18 16 15 16 16 16 17 18 18 19 19 15 16 20 21 19 17 17 17 17 17 16 15 16 16 17 17 17 17 17 17 17 17 16 16 16 15 14 13 12 12 12 11
18 18 15 14 14 15 16 16 16 17 17 16 17 17 18 20 20 20 19 18 17 16 15 15 15 15 16 16 17 17 17 17 16 16 16 15 15 15 15 14 12 11 11 10
17 17 16 14 13 13 14 15 15 16 16 17 18 17 19 21 21 20 19 17 16 15 14 14 14 15 15 15 16 16 16 16 15 15 14 14 14 14 13 13 12 12 11 9
16 16 16 15 15 16 14 14 15 16 16 16 17 18 19 19 19 18 17 16 15 14 13 13 14 14 14 15 15 15 15 15 15 14 14 13 13 13 13 13 12 11 10 9
15 16 16 17 14 13 14 16 16 16 17 15 16 18 20 19 18 16 16 15 14 13 12 13 13 13 14 14 14 14 14 14 14 14 13 13 13 13 13 12 12 11 9 8
13 15 16 17 15 13 13 13 14 15 15 16 15 17 19 18 18 18 16 14 13 12 12 12 12 12 13 13 13 13 13 13 13 13 13 13 13 13 13 12 11 10 9 8
13 15 16 16 17 17 15 14 13 13 14 15 16 17 19 19 18 17 15 13 12 12 12 11 11 12 12 12 12 12 13 13 13 13 13 13 12 12 11 11 10 9 8 7
13 14 15 15 15 15 14 14 14 14 14 15 16 17 17 18 16 14 13 12 11 11 11 11 11 11 11 11 11 11 11 12 12 12 12 11 11 11 10 10 9 8 7 6
11 13 12 13 14 14 13 13 14 14 14 15 15 15 17 15 13 13 13 12 11 11 11 10 10 10 10 10 10 10 10 10 10 11 11 10 10 10 10 9 8 8 7 5
12 12 12 13 13 12 12 14 14 14 14 14 14 16 14 13 12 12 12 11 11 10 10 10 9 9 9 9 9 9 9 9 9 9 9 9 9 9 9 8 8 7 6 5
12 11 12 11 11 10 14 14 13 13 14 14 14 13 13 12 11 11 11 10 10 10 9 9 8 8 8 8 8 8 8 8 8 9 9 9 8 8 8 7 7 6 5 4
10 10 11 10 10 12 13 13 12 12 13 13 12 12 11 10 11 12 11 10 9 8 8 8 7 7 7 7 7 7 7 7 7 7 7 7 7 7 7 6 6 5 4 3
7 9 10 9 8 10 14 12 10 11 12 12 11 11 10 10 10 11 9 8 8 8 7 7 6 6 6 6 6 6 6 6 6 6 6 6 6 6 5 5 5 4 3 2
8 8 8 9 9 12 13 10 10 11 13 11 11 10 10 10 9 9 8 8 7 7 6 6 6 6 6 6 5 5 5 5 4 5 5 5 5 4 4 4 4 3 2 1
10 10 9 9 9 10 12 10 12 13 11 10 10 9 9 8 8 7 7 7 6 6 6 6 5 6 6 5 4 4 4 3 4 4 4 4 4 4 4 3 3 2 1 -0
10 11 12 10 12 13 10 11 11 10 10 9 9 8 7 7 7 6 6 6 6 5 5 5 5 5 5 4 4 3 3 3 3 3 3 3 3 3 3 2 2 1 0 -1
10 9 9 10 11 11 11 10 10 9 8 8 7 7 6 6 6 5 5 5 5 5 5 4 4 4 4 4 3 3 2 2 1 1 2 2 2 2 2 2 1 0 -0 -2
9 9 9 9 11 10 10 9 8 8 7 6 6 5 5 5 4 4 4 4 4 4 4 4 3 3 3 3 3 2 2 1 0 1 1 0 0 0 0 0 0 -0 -1 -2
8 8 9 10 10 10 9 8 7 6 6 5 5 4 4 4 4 4 4 4 4 4 4 3 3 2 2 2 2 2 1 0 -0 -0 -0 -0 -0 -0 -0 -1 -1 -0 -1 -2
Wind_Speed
1 5 9 9 9 10 10 12 18 18 6 7 17 25 30 28 21 23 24 23 23 24 23 19 20 21 22 22 23 23 24 24 21 18 18 17 17 16 16 19 22 23 22 22
5 10 10 5 3 6 9 12 17 13 2 6 16 25 27 22 18 17 18 19 19 19 18 17 17 19 22 24 24 24 25 24 24 20 18 16 16 14 16 18 21 24 25 24
10 5 2 3 4 7 10 11 12 11 9 6 10 14 12 12 8 9 10 12 13 13 14 13 16 18 20 23 25 23 25 25 25 23 16 14 14 13 15 17 17 23 26 26
8 5 4 6 7 7 10 5 8 8 8 7 5 9 14 10 11 9 12 12 12 9 8 9 12 16 19 21 20 22 23 24 24 23 21 22 19 20 20 17 17 20 26 27
6 3 4 7 6 5 5 2 4 5 6 8 5 6 10 8 9 15 16 16 15 13 9 7 8 12 15 17 18 19 21 22 23 24 24 24 23 20 16 17 19 20 21 26
7 2 3 3 1 2 2 3 2 2 4 5 2 4 8 5 7 13 15 16 16 15 13 10 7 7 11 13 15 17 19 21 22 24 25 26 27 24 21 20 19 18 16 18
4 3 2 2 2 2 3 5 5 4 4 3 2 6 10 11 8 9 12 14 14 15 15 13 11 8 8 11 15 17 20 22 23 24 26 27 27 26 25 22 21 19 16 17
5 2 2 3 3 3 2 4 5 6 7 7 3 7 9 12 10 8 7 9 13 17 17 15 13 10 8 8 12 16 19 21 21 23 24 24 24 20 19 22 20 19 17 18
4 4 2 0 1 2 3 3 2 5 8 8 7 7 12 11 4 4 11 15 18 19 19 17 15 13 10 8 8 13 16 18 19 21 22 21 22 22 21 20 20 18 18 16
3 6 2 1 2 1 3 2 3 4 6 7 8 8 7 9 13 16 16 18 20 19 18 17 15 14 12 10 8 8 12 14 15 17 18 16 19 21 20 19 21 20 20 19
4 5 4 3 6 5 5 4 6 5 6 7 9 8 6 11 15 14 15 18 18 17 16 15 14 13 12 10 8 6 7 10 11 13 15 17 17 18 19 19 21 20 19 20
4 4 7 6 1 1 5 6 7 6 9 8 11 13 9 12 10 11 16 17 15 14 13 13 14 14 13 12 10 8 7 7 9 10 12 15 16 16 18 19 19 19 20 19
6 4 6 5 3 3 5 6 8 7 9 13 16 15 2 8 16 19 17 13 11 12 13 14 14 14 14 14 12 10 8 7 8 9 11 13 14 16 18 18 18 18 19 19
5 7 12 15 15 12 11 10 9 10 14 18 23 28 28 29 24 19 13 10 10 11 13 15 16 16 16 15 13 12 11 8 7 8 10 13 14 15 16 16 16 17 18 19
5 9 14 19 19 17 19 21 20 21 23 26 32 32 32 26 18 13 9 9 10 12 15 17 18 18 17 17 15 14 13 10 8 9 11 13 13 13 14 14 15 16 17 18
5 7 8 16 17 19 24 26 29 29 28 30 31 31 21 10 8 10 11 11 12 14 17 19 19 19 18 18 17 16 15 12 10 11 12 12 11 12 13 14 14 15 17 17
6 7 11 18 16 15 18 19 21 18 18 18 20 16 9 10 12 14 14 12 13 17 20 21 20 19 19 18 17 16 16 14 12 12 12 11 11 12 13 13 14 15 16 17
13 11 8 10 8 12 10 4 9 14 17 17 17 13 10 11 14 14 13 12 17 20 21 20 19 19 18 18 16 15 15 14 13 12 12 11 10 12 12 13 14 15 14 15
11 10 8 5 9 14 12 8 5 6 10 7 3 5 11 14 16 14 12 15 19 20 20 19 18 18 18 17 15 15 16 15 14 13 13 11 10 11 12 13 14 13 13 15
4 8 8 6 6 8 8 1 1 4 7 2 3 12 17 20 20 18 18 20 21 20 18 17 16 17 17 16 15 15 16 15 15 14 14 14 13 12 13 14 14 12 13 14
5 6 9 10 10 11 8 1 2 5 5 4 13 19 20 19 18 20 22 20 19 19 18 16 15 15 16 16 15 15 16 16 15 15 15 15 14 13 14 13 12 11 11 12
6 6 7 7 9 11 3 4 5 9 11 16 21 21 20 21 21 21 20 19 17 16 16 15 14 15 16 16 15 16 17 17 16 16 16 15 14 13 11 12 12 11 11 12
8 8 6 9 11 9 3 8 12 15 20 21 19 20 20 21 21 20 17 16 15 15 14 14 14 16 17 16 15 17 18 17 16 16 16 15 15 13 11 11 11 10 10 10
7 8 11 14 17 19 19 20 20 19 19 20 20 20 19 19 17 14 13 13 14 14 15 15 16 17 18 18 17 17 18 16 16 16 16 14 14 13 12 9 9 9 9 10
11 7 13 21 22 21 17 15 16 18 21 22 19 16 14 12 11 11 12 13 14 14 15 15 16 17 19 19 19 18 17 16 16 16 15 14 12 13 12 10 9 11 11 12
18 22 21 22 21 21 23 21 21 21 20 16 14 11 9 7 9 11 12 13 14 15 16 16 18 19 20 19 19 18 16 15 15 14 13 12 11 11 10 11 11 13 15 18
Wind_Direction
252 245 255 268 262 277 284 281 286 292 292 255 271 280 286 290 283 269 266 265 261 255 251 237 221 215 212 210 208 206 205 205 203 203 206 209 213 214 216 216 214 210 209 207
250 256 273 279 243 243 257 276 286 297 268 258 289 288 287 289 286 283 280 279 275 270 259 239 224 214 211 210 208 207 207 204 204 205 206 210 214 218 218 217 218 215 211 209
254 287 99 189 230 250 260 263 285 298 311 255 300 296 293 306 312 308 302 294 293 283 271 250 230 221 216 214 210 208 207 206 206 205 205 207 214 220 217 217 217 216 214 211
260 271 229 247 256 251 278 276 268 283 300 302 331 305 303 325 338 10 14 11 359 342 307 273 245 229 222 220 216 215 212 210 207 204 206 205 208 214 217 216 217 215 214 214
264 238 230 254 268 230 272 347 261 272 278 286 261 261 289 313 350 8 11 14 15 9 352 317 271 244 233 223 218 218 217 215 211 208 210 212 219 224 224 220 219 217 214 215
265 271 252 267 331 226 239 251 221 213 241 259 231 254 290 318 344 346 354 3 8 5 359 347 316 267 242 226 218 216 217 218 214 212 214 216 221 223 223 221 219 217 216 214
278 215 197 204 233 183 231 285 290 271 257 260 147 252 261 283 313 320 327 341 356 2 1 354 343 315 266 232 220 216 217 220 215 214 217 220 223 224 225 225 222 218 217 216
298 285 189 210 247 292 235 267 297 301 295 298 245 248 265 288 304 304 318 341 356 359 354 346 339 325 299 260 232 222 221 223 218 217 221 223 225 227 230 229 225 223 222 221
270 286 116 180 248 241 234 226 307 284 281 277 261 264 287 282 286 346 351 356 356 351 346 341 337 334 323 300 262 235 230 230 225 222 223 225 226 227 230 231 230 230 228 225
253 276 256 153 172 188 280 222 205 250 280 281 270 262 259 290 316 333 343 348 347 345 343 340 338 337 333 323 304 268 244 239 234 229 227 229 229 229 232 233 232 231 230 226
221 257 256 222 223 230 184 195 224 248 258 274 286 269 256 282 311 327 336 339 340 341 341 341 340 340 339 338 331 308 272 254 244 235 232 231 233 232 232 233 235 234 232 228
204 246 267 258 161 276 237 238 221 250 262 250 277 281 274 282 306 322 326 332 338 342 344 345 345 347 348 346 342 329 303 275 257 246 240 238 237 235 235 236 237 235 234 230
169 226 280 266 215 192 224 226 226 246 273 269 271 277 278 283 298 314 325 333 340 346 350 351 351 350 348 344 339 332 316 292 272 254 246 245 242 238 238 239 238 235 233 231
199 236 248 265 280 291 265 249 231 235 262 270 265 277 288 297 310 324 332 338 345 350 352 352 347 344 341 337 334 330 322 307 284 262 252 250 247 246 246 244 241 238 234 232
203 253 256 264 276 279 273 270 262 253 258 267 276 282 290 305 321 329 332 336 341 345 347 345 340 336 332 330 328 326 320 311 293 272 261 259 260 257 254 250 246 241 237 234
221 256 267 270 271 274 274 268 264 263 263 264 272 279 294 323 341 336 333 333 332 335 337 335 331 328 325 323 321 319 315 313 301 282 274 272 267 261 256 253 248 242 238 235
228 250 277 282 293 291 273 262 257 252 251 259 269 288 337 339 337 331 325 323 326 327 328 325 323 321 318 317 316 313 311 310 301 289 282 277 271 266 261 256 250 245 241 237
249 251 266 285 289 255 264 290 262 264 266 267 272 293 323 330 322 312 311 318 323 323 321 319 318 315 312 311 311 310 308 305 301 295 290 284 275 271 270 263 256 251 245 239
228 227 242 255 265 275 280 278 258 259 279 288 297 341 337 331 316 310 325 324 317 316 313 312 312 309 308 308 312 311 307 306 303 299 298 294 280 275 273 268 262 256 249 244
179 207 224 226 246 267 285 100 353 277 278 112 357 333 329 328 318 316 325 318 314 312 312 312 312 309 307 311 314 309 307 307 306 307 305 302 295 285 279 274 271 262 252 247
160 190 216 232 246 267 280 297 223 251 316 350 320 320 318 314 307 309 313 311 310 311 312 314 313 309 309 313 313 307 306 306 309 308 305 301 297 291 286 282 274 265 255 249
214 221 219 223 232 252 213 174 228 297 319 312 311 313 312 309 308 309 310 310 311 312 313 316 314 310 311 313 312 307 306 310 311 308 304 301 301 297 289 283 277 266 256 250
226 231 243 226 241 269 233 256 289 304 303 307 309 309 307 305 305 307 308 310 312 311 312 314 312 309 309 311 311 306 306 310 309 306 303 303 303 299 291 283 277 268 255 248
243 244 252 263 262 271 278 284 291 298 304 307 306 305 303 300 303 306 309 310 311 311 314 315 312 309 309 312 310 306 307 307 304 303 304 304 303 300 296 283 271 263 254 248
250 252 255 263 275 284 281 286 298 306 305 304 303 302 301 302 305 310 309 309 311 311 311 311 308 306 306 309 308 307 308 308 305 303 302 302 300 298 297 286 271 263 255 249
240 247 256 267 280 289 294 303 306 304 302 302 302 302 304 305 306 308 306 307 307 307 308 307 306 306 307 308 306 307 308 307 304 301 301 301 301 299 294 292 287 263 256 259
Height
1552 1551 1546 1544 1545 1545 1545 1544 1539 1533 1534 1539 1528 1515 1500 1496 1498 1495 1492 1491 1490 1488 1490 1493 1493 1495 1497 1500 1502 1504 1507 1510 1512 1513 1515 1516 1517 1519 1521 1522 1524 1526 1527 1528
1550 1546 1543 1545 1547 1548 1546 1544 1536 1529 1536 1536 1525 1512 1496 1491 1490 1488 1486 1484 1483 1482 1483 1485 1485 1486 1488 1491 1493 1496 1498 1501 1503 1504 1507 1509 1511 1511 1512 1514 1515 1516 1518 1519
1546 1543 1546 1546 1545 1545 1542 1541 1534 1534 1532 1533 1531 1505 1489 1484 1486 1486 1483 1481 1478 1477 1476 1478 1479 1479 1481 1483 1485 1488 1491 1493 1495 1498 1500 1501 1501 1501 1502 1502 1504 1506 1507 1508
1544 1543 1546 1545 1542 1542 1538 1537 1539 1539 1536 1526 1531 1520 1491 1483 1483 1481 1481 1479 1477 1475 1474 1474 1474 1474 1475 1477 1480 1483 1485 1487 1488 1490 1490 1490 1489 1489 1490 1493 1494 1496 1497 1498
1540 1543 1543 1542 1539 1541 1537 1540 1539 1538 1536 1532 1526 1526 1497 1484 1481 1479 1480 1480 1478 1476 1473 1472 1471 1471 1471 1473 1474 1476 1478 1479 1480 1481 1481 1481 1481 1482 1484 1484 1484 1485 1485 1486
1541 1543 1542 1541 1542 1542 1540 1540 1539 1538 1533 1529 1522 1522 1500 1481 1483 1482 1481 1480 1479 1476 1474 1472 1470 1469 1468 1468 1468 1469 1470 1471 1472 1472 1472 1472 1472 1473 1474 1473 1473 1473 1473 1473
1538 1539 1541 1542 1541 1541 1540 1535 1527 1523 1522 1518 1526 1524 1501 1481 1483 1485 1484 1482 1479 1477 1474 1471 1468 1466 1465 1463 1462 1462 1462 1462 1462 1462 1462 1462 1463 1464 1463 1463 1463 1463 1462 1461
1541 1536 1538 1540 1539 1537 1537 1536 1533 1533 1523 1515 1523 1517 1490 1480 1482 1484 1484 1483 1479 1477 1474 1470 1466 1463 1461 1458 1456 1455 1454 1453 1453 1453 1453 1453 1454 1454 1453 1454 1453 1452 1451 1451
1539 1537 1539 1540 1540 1539 1537 1535 1536 1533 1527 1530 1513 1505 1492 1478 1478 1480 1480 1479 1478 1475 1472 1468 1463 1460 1456 1454 1451 1449 1447 1446 1445 1445 1444 1444 1444 1444 1444 1444 1444 1442 1441 1441
1538 1538 1536 1539 1540 1540 1539 1536 1537 1533 1530 1522 1509 1505 1492 1478 1475 1477 1478 1478 1476 1474 1470 1465 1461 1457 1453 1450 1447 1444 1442 1440 1438 1437 1436 1435 1435 1435 1435 1434 1433 1432 1432 1431
1539 1538 1534 1536 1535 1530 1538 1538 1534 1528 1527 1523 1510 1497 1483 1480 1478 1480 1480 1478 1476 1473 1468 1463 1459 1455 1452 1448 1444 1441 1438 1436 1433 1431 1430 1429 1428 1427 1426 1425 1424 1423 1422 1421
1539 1536 1532 1528 1531 1534 1531 1528 1528 1528 1518 1520 1512 1495 1478 1479 1480 1481 1480 1478 1475 1472 1467 1463 1459 1455 1451 1447 1443 1440 1436 1433 1430 1428 1425 1423 1422 1420 1418 1417 1416 1414 1412 1410
1539 1537 1533 1525 1531 1534 1532 1529 1528 1524 1520 1513 1509 1490 1476 1478 1477 1477 1478 1476 1474 1470 1466 1462 1459 1455 1451 1447 1443 1439 1435 1432 1428 1425 1422 1419 1416 1414 1411 1409 1407 1404 1402 1400
1537 1533 1531 1527 1518 1517 1522 1524 1526 1525 1516 1504 1494 1481 1473 1472 1472 1475 1476 1475 1472 1469 1466 1462 1458 1454 1450 1446 1442 1437 1433 1429 1425 1421 1418 1414 1411 1408 1404 1401 1398 1395 1392 1390
1536 1530 1524 1520 1518 1519 1518 1516 1514 1513 1506 1500 1483 1479 1471 1471 1475 1476 1475 1473 1471 1468 1465 1461 1457 1453 1448 1443 1439 1434 1430 1425 1421 1416 1412 1408 1404 1400 1396 1392 1389 1386 1383 1380
1533 1529 1526 1521 1518 1516 1513 1507 1502 1498 1494 1489 1482 1477 1474 1476 1477 1476 1474 1472 1469 1466 1463 1459 1455 1450 1445 1440 1435 1429 1424 1420 1415 1410 1406 1401 1397 1392 1388 1384 1380 1376 1373 1370
1529 1527 1524 1515 1512 1515 1505 1491 1489 1487 1483 1482 1478 1473 1476 1477 1477 1475 1473 1470 1467 1464 1460 1456 1451 1446 1441 1435 1429 1424 1418 1413 1408 1403 1399 1394 1389 1385 1380 1375 1371 1367 1364 1361
1522 1525 1523 1516 1518 1514 1487 1484 1484 1482 1478 1476 1475 1477 1479 1479 1477 1473 1470 1467 1464 1460 1456 1451 1446 1440 1435 1429 1423 1417 1412 1407 1401 1396 1391 1387 1382 1377 1372 1367 1363 1358 1354 1350
1521 1522 1520 1520 1512 1495 1484 1482 1482 1481 1476 1475 1476 1477 1477 1475 1471 1467 1466 1464 1461 1456 1451 1445 1440 1434 1428 1422 1416 1410 1405 1400 1394 1389 1384 1379 1374 1368 1364 1359 1355 1350 1346 1342
1521 1520 1518 1517 1518 1500 1478 1481 1482 1482 1475 1475 1475 1475 1473 1470 1465 1461 1462 1459 1454 1449 1444 1439 1433 1427 1421 1416 1409 1403 1398 1392 1387 1382 1376 1371 1366 1361 1356 1351 1346 1342 1337 1333
1516 1518 1516 1511 1507 1487 1477 1481 1482 1481 1472 1475 1473 1471 1470 1467 1464 1460 1456 1452 1448 1443 1437 1432 1426 1421 1415 1409 1403 1397 1391 1386 1380 1374 1369 1364 1359 1353 1348 1343 1338 1334 1329 1325
1504 1503 1505 1503 1500 1488 1476 1478 1476 1472 1472 1471 1469 1467 1464 1461 1457 1453 1449 1445 1441 1436 1431 1425 1420 1415 1409 1403 1397 1390 1385 1379 1373 1367 1362 1357 1352 1346 1341 1336 1331 1326 1322 1318
1500 1495 1489 1489 1481 1473 1474 1473 1472 1472 1469 1467 1465 1462 1459 1454 1450 1447 1443 1439 1434 1430 1425 1419 1414 1408 1402 1397 1391 1384 1378 1372 1366 1360 1354 1349 1344 1340 1334 1329 1324 1319 1315 1311
1493 1493 1489 1481 1471 1471 1471 1470 1469 1468 1465 1462 1460 1456 1452 1448 1444 1441 1437 1433 1429 1424 1419 1414 1408 1401 1395 1390 1384 1378 1371 1364 1358 1353 1347 1343 1338 1333 1328 1323 1318 1313 1308 1304
1490 1487 1481 1473 1468 1467 1465 1466 1465 1463 1460 1457 1453 1450 1446 1442 1439 1436 1432 1428 1424 1419 1414 1408 1402 1395 1388 1382 1376 1371 1365 1358 1352 1346 1341 1336 1331 1326 1321 1316 1312 1306 1302 1299
1483 1479 1473 1463 1463 1462 1460 1461 1459 1456 1453 1450 1447 1443 1441 1438 1435 1432 1428 1424 1419 1413 1408 1402 1395 1388 1382 1375 1369 1364 1358 1352 1346 1340 1335 1330 1325 1320 1315 1309 1304 1299 1296 1291